ON1TG-13 Weather Reports


Display with metric or nautical units.
time (UTC)temp
F
wind
direction
speed
MPH
gust
MPH
rain 1hr
in
rain 24hr
in
rain mn
in
humidity
%
barometer
mb
20260510074144 70 15 16.0 30.0 0.00 0.00 0.00 21 1015.4
20260510072635 68 20 18.0 30.0 0.00 0.00 0.00 21 1015.4
20260510071128 69 13 15.0 29.0 0.00 0.00 0.00 21 1015.3
20260510065621 71 25 18.0 28.0 0.00 0.00 0.00 21 1015.3
20260510064113 70 22 16.0 25.0 0.00 0.00 0.00 21 1015.3
20260510062605 67 20 17.0 27.0 0.00 0.00 0.00 21 1015.0
20260510061058 71 24 12.0 27.0 0.00 0.00 0.00 21 1015.4
20260510055551 67 22 15.0 25.0 0.00 0.00 0.00 21 1015.0
20260510054043 67 28 16.0 26.0 0.00 0.00 0.00 21 1015.2
20260510052535 68 18 12.0 23.0 0.00 0.00 0.00 21 1015.1
20260510051027 66 23 14.0 23.0 0.00 0.00 0.00 21 1015.1
20260510045520 65 14 15.0 26.0 0.00 0.00 0.00 21 1015.3
20260510044013 64 20 13.0 24.0 0.00 0.00 0.00 21 1015.4
20260510042504 64 20 15.0 27.0 0.00 0.00 0.00 21 1014.7
20260510040957 66 17 12.0 24.0 0.00 0.00 0.00 21 1015.2
20260510035450 67 15 11.0 22.0 0.00 0.00 0.00 21 1015.2
20260510033943 65 22 12.0 21.0 0.00 0.00 0.00 21 1015.1
20260510032435 64 24 11.0 22.0 0.00 0.00 0.00 21 1015.3
20260510030928 64 16 11.0 21.0 0.00 0.00 0.00 21 1015.4
20260510025421 67 25 13.0 25.0 0.00 0.00 0.00 21 1015.1
20260510023914 68 23 11.0 23.0 0.00 0.00 0.00 21 1015.4
20260510022406 67 20 13.0 21.0 0.00 0.00 0.00 21 1015.3
20260510020859 65 24 12.0 25.0 0.00 0.00 0.00 21 1015.4
20260510015351 65 22 12.0 23.0 0.00 0.00 0.00 21 1015.5
20260510013844 66 27 10.0 20.0 0.00 0.00 0.00 21 1015.7
20260510012336 65 10 12.0 21.0 0.00 0.00 0.00 21 1015.5
20260510010829 66 17 10.0 19.0 0.00 0.00 0.00 21 1015.7
20260510005322 66 25 12.0 19.0 0.00 0.00 0.00 21 1015.8
20260510003814 65 26 9.0 20.0 0.00 0.00 0.00 21 1016.0
20260510002307 66 24 12.0 22.0 0.00 0.00 0.00 21 1015.9
20260510000800 65 10 11.0 22.0 0.00 0.00 0.00 21 1015.9
20260509235253 65 27 11.0 25.0 0.00 0.00 0.00 21 1016.1
20260509233744 65 22 11.0 17.0 0.00 0.00 0.00 21 1016.3
20260509232237 66 21 9.0 18.0 0.00 0.00 0.00 21 1016.4
20260509230730 66 26 11.0 20.0 0.00 0.00 0.00 21 1016.3
20260509225223 66 20 12.0 20.0 0.00 0.00 0.00 21 1016.2
20260509223714 66 17 10.0 16.0 0.00 0.00 0.00 21 1016.4
20260509222206 67 20 9.0 20.0 0.00 0.00 0.00 21 1016.4
20260509220659 66 23 10.0 17.0 0.00 0.00 0.00 21 1016.3
20260509215152 67 19 10.0 21.0 0.00 0.00 0.00 21 1016.5
20260509213644 66 17 11.0 22.0 0.00 0.00 0.00 21 1016.4
20260509212137 66 19 11.0 21.0 0.00 0.00 0.00 21 1016.4
20260509210630 66 26 10.0 21.0 0.00 0.00 0.00 21 1016.3
20260509205122 66 16 9.0 22.0 0.00 0.00 0.00 21 1016.2
20260509203615 66 19 9.0 18.0 0.00 0.00 0.00 21 1016.3
20260509202107 66 25 7.0 21.0 0.00 0.00 0.00 21 1016.2
20260509200559 68 26 10.0 20.0 0.00 0.00 0.00 21 1016.1
20260509195051 66 19 12.0 21.0 0.00 0.00 0.00 21 1015.9
20260509193544 68 27 9.0 19.0 0.00 0.00 0.00 21 1016.0
20260509192037 67 20 8.0 20.0 0.00 0.00 0.00 21 1015.9
20260509190530 67 13 11.0 21.0 0.00 0.00 0.00 21 1015.7
20260509185022 69 22 11.0 21.0 0.00 0.00 0.00 21 1016.0
20260509183515 70 17 12.0 21.0 0.00 0.00 0.00 21 1015.8
20260509182008 69 18 12.0 22.0 0.00 0.00 0.00 21 1015.8
20260509180500 70 17 12.0 21.0 0.00 0.00 0.00 21 1015.9
20260509174953 70 11 13.0 22.0 0.00 0.00 0.00 21 1015.9
20260509173446 70 16 12.0 25.0 0.00 0.00 0.00 21 1015.8
20260509171938 69 12 13.0 24.0 0.00 0.00 0.00 21 1015.8
20260509170431 71 19 11.0 22.0 0.00 0.00 0.00 21 1015.6
20260509164924 70 16 14.0 25.0 0.00 0.00 0.00 21 1015.5
20260509163415 70 20 14.0 27.0 0.00 0.00 0.00 21 1015.6
20260509161908 71 6 12.0 25.0 0.00 0.00 0.00 21 1015.7
20260509160401 71 10 15.0 25.0 0.00 0.00 0.00 21 1015.5
20260509154853 72 19 13.0 25.0 0.00 0.00 0.00 21 1015.9
20260509153346 73 16 14.0 26.0 0.00 0.00 0.00 21 1015.5
20260509151839 72 18 17.0 25.0 0.00 0.00 0.00 21 1015.7
20260509150331 72 17 16.0 26.0 0.00 0.00 0.00 21 1015.5
20260509144824 72 17 15.0 26.0 0.00 0.00 0.00 21 1015.5
20260509143317 74 16 14.0 26.0 0.00 0.00 0.00 21 1015.9
20260509141809 74 15 13.0 24.0 0.00 0.00 0.00 21 1015.8
20260509140302 74 25 14.0 24.0 0.00 0.00 0.00 21 1015.9
20260509134755 75 20 16.0 25.0 0.00 0.00 0.00 21 1015.9
20260509133247 74 11 14.0 25.0 0.00 0.00 0.00 21 1015.6
20260509131740 75 20 13.0 25.0 0.00 0.00 0.00 21 1016.1
20260509130233 79 21 12.0 22.0 0.00 0.00 0.00 21 1016.3
20260509124725 78 18 14.0 23.0 0.00 0.00 0.00 21 1016.1
20260509123219 76 19 14.0 22.0 0.00 0.00 0.00 21 1016.3
20260509121711 76 16 11.0 22.0 0.00 0.00 0.00 21 1016.5
20260509120203 76 13 12.0 23.0 0.00 0.00 0.00 21 1016.8
20260509113149 75 16 13.0 22.0 0.00 0.00 0.00 21 1016.9
20260509111641 76 9 12.0 23.0 0.00 0.00 0.00 21 1017.1
20260509110134 76 19 14.0 23.0 0.00 0.00 0.00 21 1017.2
20260509104627 75 24 15.0 24.0 0.00 0.00 0.00 21 1017.2
20260509103120 75 15 13.0 22.0 0.00 0.00 0.00 21 1017.4
20260509101613 76 19 11.0 20.0 0.00 0.00 0.00 21 1017.3
20260509100105 78 18 11.0 20.0 0.00 0.00 0.00 21 1017.6
20260509094558 79 19 9.0 17.0 0.00 0.00 0.00 21 1017.5
20260509093050 80 19 8.0 14.0 0.00 0.00 0.00 21 1017.5
20260509091543 79 12 9.0 16.0 0.00 0.00 0.00 21 1017.6
20260509084528 82 19 6.0 14.0 0.00 0.00 0.00 21 1017.7
20260509083021 79 27 6.0 12.0 0.00 0.00 0.00 21 1017.8
20260509081514 76 33 8.0 15.0 0.00 0.00 0.00 21 1017.6
20260509080006 76 35 8.0 14.0 0.00 0.00 0.00 21 1017.9